Hauptseite
METAR-TAF:

METAR-TAF

Flughäfen :

Fliegerhorst Lechfeld

Lechfeld, Deutschland

Breite: 48-11N, Länge: 010-52E, Höhe: 555 m

Beobachtung

Neuester Wetterbericht von vor 55 Minuten, um 04:20 UTC
Wind 4 kt aus Nord
Temperatur 9°C
Luftfeuchtigkeit 87%
Luftdruck 1016 hPa
Sichtweite: 5000 m

METAR: ETSL 210420Z AUTO 01004KT 5000 // ////// 09/07 Q1016 ///

Zeit: 07:15 (05:15 UTC)


TAF: fehlend

Wetterbeobachtungen und Prognosen von mehr als 4000 Flughäfen (METAR und TAF Bericht).

Die verfügbaren Stationen werden durch gelbe und rote Markierungen auf der Karte dargestellt.

Führen Sie die Maus auf sie, um den Namen der Station zu sehen.

Darauf klicken, um die Beobachtung von Wetterbeobachtungen und Prognosen zu sehen.

Um die Karte zu ändern : klicken Sie auf den grünen Tasten mit einem schwarzen Kreuz Zum Vergrößern, auf den grünen Button mit einem Gedankenstrich zu verkleinern, oder auf die grünen Pfeile für benachbarte Karten.


METAR-TAF: